Notices

What's New in latest Release from April 7th, 2021:

- Updated Glossary, including Speed of Maximum Gust, and Total Hourly Precipitation

- Updated national and regional climate services offices contacts and prices information

- Addition of station inventory lists for 1981-2010, 1971-2000, and 1961-1990 Normals.

If you haven't already, please take our survey and provide feedback about our website: https://eccc.sondage-survey.ca/f/LanguageSelection.aspx?s=442ca660-fcf1-47c0-95a9-59707d6fd709

Hourly Data Report for December 22, 2020

MUSKOKA
ONTARIO
Current Station Operator: NAVCAN

44°58'29.000" N
79°18'12.000" W
281.90 m
6115529
71532
YQA

Download Data

Hourly Data (December 2020)
Hourly Data Report for December 22, 2020
TIME
LST
Temp Definition
°C
Dew Point Definition
°C
Rel Hum Definition
%
Precip. Amount Definition
mm

Wind Dir Definition
10's deg

Wind Spd Definition
km/h
Visibility Definition
km
Stn Press Definition
kPa
Hmdx Definition


Wind Chill Definition


Weather Definition


00:00 -1.0 -1.3 98 LegendMM   0 2.8 96.98     Fog
01:00 -0.7 -1.0 98 LegendMM 27 4 4.0 96.98   -2 Fog
02:00 -0.2 -0.9 95 LegendMM 30 11 4.8 97.05   -4 Fog
03:00 -1.4 -3.0 89 LegendMM 32 11 16.1 97.11   -5 LegendNANA
04:00 -1.5 -3.9 84 LegendMM 31 11 16.1 97.15   -5 LegendNANA
05:00 -1.6 -3.8 85 LegendMM 30 9 16.1 97.20   -5 LegendNANA
06:00 -1.9 -3.5 89 LegendMM 30 13 16.1 97.30   -6 LegendNANA
07:00 -3.7 -4.4 95 LegendMM 33 9 16.1 97.38   -7 LegendNANA
08:00 -3.0 -4.0 93 LegendMM 32 9 16.1 97.47   -7 LegendNANA
09:00 -2.0 -3.4 90 LegendMM 31 15 16.1 97.54   -7 LegendNANA
10:00 -1.8 -5.3 77 LegendMM 30 21 16.1 97.66   -8 LegendNANA
11:00 -1.8 -6.4 71 LegendMM 28 22 16.1 97.77   -8 LegendNANA
12:00 -2.2 -6.6 72 LegendMM 31 26 16.1 97.82   -9 LegendNANA
13:00 -1.7 -6.8 69 LegendMM 29 17 16.1 97.86   -7 LegendNANA
14:00 -1.9 -8.0 63 LegendMM 27 24 16.1 97.98   -8 LegendNANA
15:00 -3.3 -8.5 68 LegendMM 29 22 16.1 98.09   -10 LegendNANA
16:00 -3.2 -8.1 69 LegendMM 30 18 16.1 98.24   -9 LegendNANA
17:00 -3.3 -8.0 70 LegendMM 31 13 16.1 98.36   -8 LegendNANA
18:00 -3.3 -7.7 72 LegendMM 30 15 16.1 98.47   -8 LegendNANA
19:00 -3.6 -8.1 71 LegendMM 33 17 16.1 98.57   -9 LegendNANA
20:00 -3.5 -8.4 69 LegendMM 34 22 16.1 98.66   -10 LegendNANA
21:00 -3.9 -9.1 67 LegendMM 34 11 16.1 98.65   -8 LegendNANA
22:00 -4.4 -9.2 69 LegendMM 35 11 16.1 98.72   -9 LegendNANA
23:00 -4.5 -9.6 68 LegendMM   0 16.1 98.72     LegendNANA

Notes on Data Quality.

Legend

  • E = Estimated
  • M = Missing
  • NA = Not Available*
  • [empty] = Indicates an unobserved value
Date modified: